DW7325 Weather Reports


Display with metric or nautical units.
time (UTC)temp
F
wind
direction
speed
MPH
gust
MPH
rain 1hr
in
rain 24hr
in
rain mn
in
humidity
%
barometer
mb
20221209013223 48 355 0.0 1.0 0.00 0.00 0.00 76 1023.9
20221209013116 48 355 0.0 1.0 0.00 0.00 0.00 76 1023.9
20221209013013 48 355 0.0 1.0 0.00 0.00 0.00 76 1023.9
20221209012911 48 355 0.0 1.0 0.00 0.00 0.00 76 1023.9
20221209012804 48 355 0.0 1.0 0.00 0.00 0.00 76 1023.8
20221209012439 48 355 0.0 2.0 0.00 0.00 0.00 76 1023.7
20221209012335 48 355 0.0 2.0 0.00 0.00 0.00 76 1023.7
20221209012011 48 355 0.0 2.0 0.00 0.00 0.00 76 1023.8
20221209011908 48 355 0.0 1.0 0.00 0.00 0.00 77 1023.9
20221209011802 48 355 0.0 0.0 0.00 0.00 0.00 77 1023.9
20221209011655 48 355 0.0 3.0 0.00 0.00 0.00 77 1023.9
20221209011550 48 355 0.0 3.0 0.00 0.00 0.00 77 1023.9
20221209011445 48 355 0.0 3.0 0.00 0.00 0.00 77 1024.0
20221209011337 48 355 0.0 2.0 0.00 0.00 0.00 77 1024.0
20221209011230 48 355 0.0 2.0 0.00 0.00 0.00 77 1024.0
20221209010909 48 355 0.0 1.0 0.00 0.00 0.00 77 1024.0
20221209010805 48 355 0.0 1.0 0.00 0.00 0.00 77 1024.0
20221209010658 48 355 0.0 0.0 0.00 0.00 0.00 77 1024.0
20221209010332 48 355 0.0 1.0 0.00 0.00 0.00 77 1023.9
20221209010003 48 355 0.0 2.0 0.00 0.00 0.00 77 1023.8
20221209005901 48 355 0.0 2.0 0.00 0.00 0.00 77 1023.8
20221209005310 48 355 0.0 2.0 0.00 0.00 0.00 77 1023.9
20221209004724 48 355 0.0 0.0 0.00 0.00 0.00 76 1023.8
20221209004616 48 355 0.0 0.0 0.00 0.00 0.00 76 1023.7
20221209004508 48 355 0.0 2.0 0.00 0.00 0.00 76 1023.6
20221209004403 48 355 0.0 2.0 0.00 0.00 0.00 76 1023.5
20221209004259 48 355 0.0 2.0 0.00 0.00 0.00 76 1023.5
20221209004152 48 355 0.0 2.0 0.00 0.00 0.00 76 1023.4
20221209004050 48 355 0.0 0.0 0.00 0.00 0.00 76 1023.4
20221209003946 48 355 0.0 0.0 0.00 0.00 0.00 76 1023.5
20221209003841 48 355 0.0 1.0 0.00 0.00 0.00 76 1023.5
20221209003738 48 355 0.0 1.0 0.00 0.00 0.00 76 1023.5
20221209003635 48 355 0.0 1.0 0.00 0.00 0.00 76 1023.5
20221209003533 48 355 0.0 1.0 0.00 0.00 0.00 76 1023.5
20221209003427 49 355 0.0 1.0 0.00 0.00 0.00 76 1023.5
20221209003320 49 355 0.0 0.0 0.00 0.00 0.00 76 1023.5
20221209003215 49 355 0.0 0.0 0.00 0.00 0.00 76 1023.5
20221209003107 49 355 0.0 1.0 0.00 0.00 0.00 76 1023.6
20221209003000 49 355 0.0 1.0 0.00 0.00 0.00 76 1023.7
20221209002633 49 355 0.0 1.0 0.00 0.00 0.00 76 1023.7
20221209002531 49 355 0.0 1.0 0.00 0.00 0.00 76 1023.7
20221209002423 49 355 0.0 1.0 0.00 0.00 0.00 76 1023.7
20221209001842 49 355 0.0 0.0 0.00 0.00 0.00 76 1023.5
20221209001736 49 355 0.0 0.0 0.00 0.00 0.00 75 1023.5
20221209001633 49 355 0.0 0.0 0.00 0.00 0.00 75 1023.5
20221209001529 49 355 0.0 0.0 0.00 0.00 0.00 75 1023.5
20221209001427 49 355 0.0 0.0 0.00 0.00 0.00 75 1023.5
20221209001321 49 355 0.0 0.0 0.00 0.00 0.00 75 1023.5
20221209001218 49 355 0.0 0.0 0.00 0.00 0.00 75 1023.5
20221209001112 49 355 0.0 0.0 0.00 0.00 0.00 76 1023.5
20221209001006 49 355 0.0 0.0 0.00 0.00 0.00 75 1023.5
20221209000642 49 355 0.0 1.0 0.00 0.00 0.00 75 1023.5
20221209000315 49 355 0.0 0.0 0.00 0.00 0.00 74 1023.5
20221209000212 49 355 0.0 0.0 0.00 0.00 0.00 74 1023.5
20221209000107 49 355 0.0 0.0 0.00 0.00 0.00 74 1023.5
20221208235737 49 355 0.0 0.0 0.00 0.00 0.00 74 1023.5
20221208235633 49 355 0.0 0.0 0.00 0.00 0.00 74 1023.6
20221208235527 50 355 0.0 0.0 0.00 0.00 0.00 74 1023.6
20221208235422 50 355 0.0 0.0 0.00 0.00 0.00 74 1023.7
20221208235316 50 355 0.0 0.0 0.00 0.00 0.00 74 1023.7
20221208235211 50 355 0.0 0.0 0.00 0.00 0.00 74 1023.7
20221208235108 50 355 0.0 0.0 0.00 0.00 0.00 74 1023.7
20221208235004 50 355 0.0 0.0 0.00 0.00 0.00 74 1023.7
20221208234855 50 355 0.0 0.0 0.00 0.00 0.00 74 1023.7
20221208234751 50 355 0.0 0.0 0.00 0.00 0.00 74 1023.8
20221208234422 50 355 0.0 0.0 0.00 0.00 0.00 74 1023.7
20221208234320 50 355 0.0 0.0 0.00 0.00 0.00 73 1023.6
20221208234217 50 355 0.0 0.0 0.00 0.00 0.00 73 1023.7
20221208234113 50 355 0.0 0.0 0.00 0.00 0.00 73 1023.8
20221208234009 50 355 0.0 0.0 0.00 0.00 0.00 73 1023.8
20221208233640 50 355 0.0 0.0 0.00 0.00 0.00 73 1023.7
20221208233533 50 355 0.0 0.0 0.00 0.00 0.00 73 1023.7
20221208233430 50 355 0.0 0.0 0.00 0.00 0.00 73 1023.8
20221208232853 50 355 0.0 0.0 0.00 0.00 0.00 73 1023.7
20221208232749 50 355 0.0 0.0 0.00 0.00 0.00 73 1023.8
20221208232645 50 355 0.0 0.0 0.00 0.00 0.00 73 1023.8
20221208232538 50 355 0.0 0.0 0.00 0.00 0.00 73 1023.7
20221208232435 50 355 0.0 0.0 0.00 0.00 0.00 73 1023.8
20221208232329 50 355 0.0 0.0 0.00 0.01 0.00 73 1023.7
20221208232005 50 355 0.0 0.0 0.00 0.01 0.00 73 1023.8
20221208231424 50 355 0.0 1.0 0.00 0.01 0.00 73 1023.7
20221208231317 50 355 0.0 1.0 0.00 0.01 0.00 73 1023.7
20221208230953 50 355 0.0 0.0 0.00 0.01 0.00 73 1023.7
20221208230847 50 355 0.0 0.0 0.00 0.01 0.00 73 1023.7
20221208230739 50 355 0.0 0.0 0.00 0.01 0.00 73 1023.7
20221208230634 50 355 0.0 0.0 0.00 0.01 0.00 72 1023.6
20221208230530 50 355 0.0 0.0 0.00 0.01 0.00 72 1023.6
20221208230427 50 355 0.0 0.0 0.00 0.01 0.00 72 1023.6
20221208230322 51 355 0.0 0.0 0.00 0.01 0.00 72 1023.6
20221208225958 51 355 0.0 1.0 0.00 0.01 0.00 72 1023.6
20221208225852 51 355 0.0 1.0 0.00 0.01 0.00 72 1023.6
20221208225745 51 355 0.0 0.0 0.00 0.01 0.00 72 1023.5
20221208225638 51 355 0.0 0.0 0.00 0.01 0.00 72 1023.5
20221208225535 51 355 0.0 0.0 0.00 0.01 0.00 72 1023.5
20221208225434 51 355 0.0 0.0 0.00 0.01 0.00 72 1023.5
20221208225326 51 355 0.0 0.0 0.00 0.01 0.00 72 1023.4
20221208225222 51 355 0.0 0.0 0.00 0.01 0.00 72 1023.4
20221208225120 51 355 0.0 0.0 0.00 0.01 0.00 72 1023.4
20221208225015 51 355 0.0 0.0 0.00 0.01 0.00 72 1023.4
20221208224910 51 355 0.0 1.0 0.00 0.01 0.00 72 1023.4
20221208224544 51 355 0.0 0.0 0.00 0.01 0.00 72 1023.3
20221208224437 51 355 0.0 0.0 0.00 0.01 0.00 72 1023.3
20221208224333 51 355 0.0 0.0 0.00 0.01 0.00 72 1023.3
20221208224229 51 355 0.0 1.0 0.00 0.01 0.00 71 1023.3
20221208224122 51 355 0.0 1.0 0.00 0.01 0.00 72 1023.2
20221208224020 51 355 0.0 1.0 0.00 0.01 0.00 72 1023.2
20221208223913 51 355 0.0 0.0 0.00 0.01 0.00 72 1023.2
20221208223809 51 355 0.0 0.0 0.00 0.01 0.00 72 1023.1
20221208223704 51 355 0.0 2.0 0.00 0.01 0.00 72 1023.1
20221208223601 51 355 0.0 2.0 0.00 0.01 0.00 72 1023.1
20221208223456 51 355 0.0 1.0 0.00 0.01 0.00 72 1023.1
20221208223352 51 355 0.0 1.0 0.00 0.01 0.00 72 1023.1
20221208223246 51 355 0.0 1.0 0.00 0.01 0.00 72 1023.1
20221208223141 51 355 0.0 1.0 0.00 0.01 0.00 71 1023.2
20221208223036 51 355 0.0 0.0 0.00 0.01 0.00 71 1023.2
20221208222931 51 355 0.0 0.0 0.00 0.01 0.00 71 1023.2
20221208222829 51 355 0.0 0.0 0.00 0.01 0.00 71 1023.2
20221208222727 51 355 0.0 0.0 0.00 0.01 0.00 71 1023.2
20221208222625 51 355 0.0 2.0 0.00 0.01 0.00 71 1023.1
20221208222521 51 355 0.0 2.0 0.00 0.01 0.00 71 1023.0
20221208222417 51 355 0.0 2.0 0.00 0.01 0.00 71 1023.0
20221208222312 51 355 0.0 2.0 0.00 0.01 0.00 71 1023.0
20221208222208 51 355 0.0 2.0 0.00 0.01 0.00 71 1023.0
20221208222105 52 355 0.0 2.0 0.00 0.01 0.00 71 1023.0
20221208222003 52 355 0.0 1.0 0.00 0.01 0.00 70 1023.1
20221208221858 52 355 0.0 3.0 0.00 0.01 0.00 70 1023.0
20221208221750 52 355 0.0 3.0 0.00 0.01 0.00 70 1023.0
20221208221643 52 355 0.0 3.0 0.00 0.01 0.00 70 1023.0
20221208221539 52 355 0.0 1.0 0.00 0.01 0.00 70 1023.0
20221208221436 52 355 0.0 1.0 0.00 0.01 0.00 70 1023.0
20221208221329 52 355 0.0 1.0 0.00 0.01 0.00 70 1022.9
20221208221221 52 355 0.0 1.0 0.00 0.01 0.00 70 1023.0
20221208221117 52 355 0.0 1.0 0.00 0.01 0.00 70 1023.0
20221208221013 52 355 0.0 0.0 0.00 0.01 0.00 70 1023.0
20221208220910 52 355 0.0 0.0 0.00 0.01 0.00 70 1023.0
20221208220806 52 355 0.0 0.0 0.00 0.01 0.00 70 1023.0
20221208220702 52 355 0.0 2.0 0.00 0.01 0.00 70 1023.1
20221208220558 52 355 0.0 2.0 0.00 0.01 0.00 70 1023.0
20221208220456 52 355 0.0 2.0 0.00 0.01 0.00 70 1023.0
20221208220348 52 355 0.0 0.0 0.00 0.01 0.00 70 1023.0
20221208220241 52 355 0.0 0.0 0.00 0.01 0.00 70 1023.1
20221208215913 52 355 0.0 3.0 0.00 0.01 0.00 70 1023.1
20221208215807 52 355 0.0 3.0 0.00 0.01 0.00 70 1023.2
20221208215659 52 355 0.0 3.0 0.00 0.01 0.00 69 1023.2
20221208215551 52 355 0.0 3.0 0.00 0.01 0.00 69 1023.1
20221208215443 52 355 0.0 3.0 0.00 0.01 0.00 69 1023.1
20221208215338 52 355 0.0 1.0 0.00 0.01 0.00 69 1023.1
20221208215236 52 355 0.0 1.0 0.00 0.01 0.00 69 1023.0
20221208215133 52 355 0.0 1.0 0.00 0.01 0.00 68 1023.0
20221208215029 52 355 0.0 0.0 0.00 0.01 0.00 68 1023.0
20221208214921 52 355 0.0 0.0 0.00 0.01 0.00 69 1023.1
20221208214817 53 355 0.0 0.0 0.00 0.01 0.00 69 1023.0
20221208214714 53 355 0.0 0.0 0.00 0.01 0.00 68 1023.1
20221208214348 53 355 0.0 4.0 0.00 0.01 0.00 68 1023.0
20221208214246 53 355 1.0 4.0 0.00 0.01 0.00 68 1023.1
20221208214144 53 355 1.0 4.0 0.00 0.01 0.00 68 1023.1
20221208214038 53 355 1.0 4.0 0.00 0.01 0.00 68 1023.1
20221208213934 53 355 1.0 4.0 0.00 0.01 0.00 68 1023.1
20221208213832 53 355 1.0 4.0 0.00 0.01 0.00 68 1023.1
20221208213725 53 355 1.0 4.0 0.00 0.01 0.00 68 1023.1
20221208213619 53 355 1.0 4.0 0.00 0.01 0.00 68 1023.1
20221208213514 53 355 1.0 4.0 0.00 0.01 0.00 68 1023.1
20221208213410 53 355 1.0 4.0 0.00 0.01 0.00 68 1023.1
20221208213306 53 355 1.0 4.0 0.00 0.01 0.00 68 1023.0
20221208213201 53 355 1.0 4.0 0.00 0.01 0.00 68 1023.0
20221208213057 53 355 1.0 4.0 0.00 0.01 0.00 68 1022.9
20221208212950 53 355 1.0 4.0 0.00 0.01 0.00 68 1023.0
20221208212405 53 338 1.0 4.0 0.00 0.01 0.00 68 1022.9
20221208212305 53 337 1.0 4.0 0.00 0.01 0.00 68 1022.9
20221208211720 53 336 1.0 4.0 0.00 0.01 0.00 68 1022.8
20221208211613 53 355 1.0 4.0 0.00 0.01 0.00 68 1022.9
20221208211510 53 0 1.0 4.0 0.00 0.01 0.00 68 1022.9
20221208211403 53 340 1.0 3.0 0.00 0.01 0.00 68 1022.9
20221208211255 53 340 1.0 3.0 0.00 0.01 0.00 68 1022.9
20221208210926 53 340 1.0 3.0 0.00 0.01 0.00 68 1022.9
20221208210820 53 340 1.0 3.0 0.00 0.01 0.00 68 1022.8
20221208210457 54 340 1.0 4.0 0.00 0.01 0.00 67 1022.9
20221208210350 54 340 1.0 4.0 0.00 0.01 0.00 67 1022.9
20221208210246 54 5 1.0 4.0 0.00 0.01 0.00 67 1022.9
20221208210144 54 48 1.0 4.0 0.00 0.01 0.00 67 1022.9
20221208210039 54 46 1.0 4.0 0.00 0.01 0.00 67 1022.9
20221208205937 54 31 0.0 4.0 0.00 0.01 0.00 67 1023.0
20221208205829 54 31 0.0 4.0 0.00 0.01 0.00 67 1023.0
20221208205726 54 31 0.0 4.0 0.00 0.01 0.00 67 1023.0
20221208205620 54 32 0.0 4.0 0.00 0.01 0.00 68 1023.0
20221208205516 54 32 0.0 4.0 0.00 0.01 0.00 68 1023.0
20221208205412 54 32 0.0 4.0 0.00 0.01 0.00 67 1023.0
20221208205305 54 32 0.0 4.0 0.00 0.01 0.00 67 1023.0
20221208205157 54 34 0.0 4.0 0.00 0.01 0.00 68 1023.0
20221208205053 54 344 0.0 4.0 0.00 0.01 0.00 69 1023.0
20221208204950 54 344 0.0 4.0 0.00 0.01 0.00 68 1023.0
20221208204620 54 344 0.0 4.0 0.00 0.01 0.00 68 1023.0
20221208204518 54 342 0.0 3.0 0.00 0.01 0.00 68 1023.1
20221208204408 54 342 0.0 3.0 0.00 0.01 0.00 68 1023.0
20221208204303 54 342 0.0 3.0 0.00 0.01 0.00 68 1023.0
20221208204158 54 342 0.0 3.0 0.00 0.01 0.00 68 1023.0
20221208203828 54 342 0.0 3.0 0.00 0.01 0.00 67 1022.9
20221208203722 54 342 0.0 3.0 0.00 0.01 0.00 67 1022.9
20221208203617 54 342 0.0 3.0 0.00 0.01 0.00 67 1022.9
20221208203510 54 342 0.0 3.0 0.00 0.01 0.00 68 1022.9
20221208203407 54 338 0.0 2.0 0.00 0.01 0.00 68 1022.9
20221208203303 54 338 0.0 2.0 0.00 0.01 0.00 68 1023.0
20221208203158 54 338 0.0 2.0 0.00 0.01 0.00 69 1023.0
20221208202612 54 338 0.0 2.0 0.00 0.01 0.00 69 1022.9
20221208202507 54 338 0.0 1.0 0.00 0.01 0.00 69 1022.9
20221208202137 54 338 0.0 1.0 0.00 0.01 0.00 68 1022.9
20221208202034 54 338 0.0 0.0 0.00 0.01 0.00 68 1022.9
20221208201707 54 338 0.0 0.0 0.00 0.01 0.00 68 1023.0
20221208201601 54 338 0.0 0.0 0.00 0.01 0.00 68 1022.9
20221208201457 54 338 0.0 0.0 0.00 0.01 0.00 67 1023.0
20221208201352 54 338 0.0 0.0 0.00 0.01 0.00 67 1023.0
20221208201025 55 338 0.0 2.0 0.00 0.01 0.00 68 1023.0
20221208200918 55 338 0.0 2.0 0.00 0.01 0.00 68 1022.9
20221208200812 55 338 0.0 2.0 0.00 0.01 0.00 68 1022.9
20221208200710 55 338 0.0 2.0 0.00 0.01 0.00 68 1022.8
20221208200607 55 338 0.0 2.0 0.00 0.01 0.00 68 1022.9
20221208200505 55 338 0.0 2.0 0.00 0.01 0.00 68 1022.8
20221208200359 55 338 0.0 1.0 0.00 0.01 0.00 68 1022.8
20221208200257 55 338 0.0 1.0 0.00 0.01 0.00 67 1022.9
20221208200154 55 338 0.0 1.0 0.00 0.01 0.00 67 1022.8
20221208195829 55 338 0.0 1.0 0.00 0.01 0.00 67 1022.7
20221208195727 55 338 0.0 2.0 0.00 0.01 0.00 67 1022.8
20221208195623 55 338 0.0 2.0 0.00 0.01 0.00 68 1022.7
20221208195518 55 338 0.0 2.0 0.00 0.01 0.00 67 1022.7
20221208195412 55 338 0.0 2.0 0.00 0.01 0.00 67 1022.7
20221208194822 55 338 0.0 2.0 0.00 0.01 0.00 68 1022.7
20221208194719 55 338 0.0 2.0 0.00 0.01 0.00 68 1022.8
20221208194613 55 338 0.0 2.0 0.00 0.01 0.00 68 1022.8
20221208194505 55 338 0.0 2.0 0.00 0.01 0.00 67 1022.9
20221208194401 55 338 0.0 2.0 0.00 0.01 0.00 67 1022.9
20221208194258 55 338 0.0 2.0 0.00 0.01 0.00 67 1023.0
20221208194152 55 338 0.0 2.0 0.00 0.01 0.00 66 1023.0
20221208194047 55 338 0.0 2.0 0.00 0.01 0.00 66 1023.0
20221208193942 55 338 0.0 2.0 0.00 0.01 0.00 67 1022.9
20221208193838 55 338 0.0 2.0 0.00 0.01 0.00 67 1022.9
20221208193510 55 338 1.0 5.0 0.00 0.01 0.00 66 1022.9
20221208193405 55 338 1.0 5.0 0.00 0.01 0.00 67 1022.9
20221208193303 55 338 1.0 5.0 0.00 0.01 0.00 67 1023.0
20221208193158 55 323 1.0 5.0 0.00 0.01 0.00 67 1022.9
20221208193055 55 336 1.0 5.0 0.00 0.01 0.00 67 1022.9
20221208192950 55 338 1.0 5.0 0.00 0.01 0.00 67 1022.8
20221208192622 55 355 1.0 4.0 0.00 0.01 0.00 66 1022.7
20221208192517 55 33 1.0 4.0 0.00 0.01 0.00 66 1022.7
20221208191708 55 5 1.0 4.0 0.00 0.01 0.00 67 1022.7
20221208191605 55 355 1.0 4.0 0.00 0.01 0.00 68 1022.7
20221208191501 55 340 1.0 4.0 0.00 0.01 0.00 67 1022.7
20221208191356 55 340 1.0 4.0 0.00 0.01 0.00 67 1022.6
20221208191030 55 29 1.0 4.0 0.00 0.01 0.00 67 1022.7
20221208190922 55 28 1.0 4.0 0.00 0.01 0.00 69 1022.7
20221208190815 55 30 1.0 4.0 0.00 0.01 0.00 69 1022.7
20221208190708 55 30 1.0 4.0 0.00 0.01 0.00 69 1022.7
20221208190602 55 30 1.0 4.0 0.00 0.01 0.00 68 1022.8
20221208190458 55 30 0.0 4.0 0.00 0.01 0.00 67 1022.8
20221208190351 55 48 0.0 4.0 0.00 0.01 0.00 67 1022.8
20221208190243 55 49 0.0 4.0 0.00 0.01 0.00 66 1022.8
20221208190141 55 49 0.0 4.0 0.00 0.01 0.00 67 1022.8
20221208190034 55 65 0.0 3.0 0.00 0.01 0.00 68 1022.8
20221208185931 55 65 0.0 3.0 0.00 0.01 0.00 68 1022.8
20221208185827 55 331 0.0 1.0 0.00 0.01 0.00 68 1022.9
20221208185724 54 331 0.0 1.0 0.00 0.01 0.00 69 1022.9
20221208185622 54 331 0.0 1.0 0.00 0.01 0.00 68 1022.9
20221208185517 54 331 0.0 0.0 0.00 0.01 0.00 69 1022.9
20221208185413 54 331 1.0 5.0 0.00 0.01 0.00 68 1022.9
20221208185306 54 331 1.0 5.0 0.00 0.01 0.00 68 1022.9
20221208185201 54 331 1.0 5.0 0.00 0.01 0.00 68 1022.9
20221208185055 54 331 1.0 5.0 0.00 0.01 0.00 68 1022.9
20221208184949 54 331 1.0 5.0 0.00 0.01 0.00 68 1023.0
20221208184844 54 331 1.0 5.0 0.00 0.01 0.00 69 1022.9
20221208184737 54 331 1.0 5.0 0.00 0.01 0.00 69 1023.0
20221208184630 54 331 1.0 5.0 0.00 0.01 0.00 69 1022.9
20221208184303 54 331 0.0 5.0 0.00 0.01 0.00 68 1023.1
20221208184201 54 331 0.0 5.0 0.00 0.01 0.00 68 1023.2
20221208184058 54 331 0.0 5.0 0.00 0.01 0.00 69 1023.2
20221208183956 54 331 0.0 5.0 0.00 0.01 0.00 69 1023.3
20221208183853 54 331 0.0 5.0 0.00 0.01 0.00 69 1023.3
20221208183747 54 331 0.0 5.0 0.00 0.01 0.00 69 1023.3
20221208183643 54 331 0.0 5.0 0.00 0.01 0.00 70 1023.4
20221208183321 54 331 1.0 5.0 0.00 0.01 0.00 70 1023.6
20221208183216 54 331 1.0 5.0 0.00 0.01 0.00 70 1023.7
20221208183111 54 331 1.0 5.0 0.00 0.01 0.00 70 1023.7
20221208183004 54 331 1.0 5.0 0.00 0.01 0.00 70 1023.7
20221208182859 54 327 1.0 5.0 0.00 0.01 0.00 69 1023.7
20221208182754 54 328 1.0 5.0 0.00 0.01 0.00 69 1023.7
20221208182650 54 329 1.0 5.0 0.00 0.01 0.00 70 1023.7
20221208182545 54 328 1.0 4.0 0.00 0.01 0.00 70 1023.7
20221208182440 54 328 1.0 4.0 0.00 0.01 0.00 69 1023.7
20221208182335 54 328 1.0 4.0 0.00 0.01 0.00 69 1023.7
20221208182233 54 328 1.0 4.0 0.00 0.01 0.00 69 1023.8
20221208182125 54 328 1.0 4.0 0.00 0.01 0.00 69 1023.8
20221208182019 54 328 1.0 4.0 0.00 0.01 0.00 69 1023.8
20221208181913 54 328 1.0 4.0 0.00 0.01 0.00 69 1023.9
20221208181810 54 328 1.0 4.0 0.00 0.01 0.00 69 1023.9
20221208181707 54 328 1.0 4.0 0.00 0.01 0.00 69 1023.9
20221208181342 54 327 1.0 4.0 0.00 0.01 0.00 69 1023.9
20221208181017 54 327 1.0 4.0 0.00 0.01 0.00 71 1023.8
20221208180913 54 326 1.0 4.0 0.00 0.01 0.00 71 1023.9
20221208180803 54 327 1.0 3.0 0.00 0.01 0.00 70 1023.8
20221208180700 54 327 1.0 3.0 0.00 0.01 0.00 70 1023.9
20221208180556 54 327 1.0 3.0 0.00 0.01 0.00 70 1023.9
20221208180452 54 327 1.0 3.0 0.00 0.01 0.00 70 1023.9
20221208180348 54 327 1.0 3.0 0.00 0.01 0.00 70 1023.9
20221208180021 54 327 1.0 3.0 0.00 0.01 0.00 71 1024.0
20221208175652 54 327 1.0 3.0 0.00 0.01 0.00 72 1024.0
20221208175545 54 327 0.0 5.0 0.00 0.01 0.00 72 1024.0
20221208175221 54 327 0.0 5.0 0.00 0.01 0.00 71 1024.0
20221208175114 54 327 1.0 5.0 0.00 0.01 0.00 71 1024.0
20221208174750 54 323 1.0 5.0 0.00 0.01 0.00 71 1024.2
20221208174642 54 323 1.0 5.0 0.00 0.01 0.00 70 1024.2
20221208174536 54 325 1.0 5.0 0.00 0.01 0.00 70 1024.2
20221208174431 54 325 2.0 5.0 0.00 0.01 0.00 70 1024.2
20221208174328 54 325 2.0 5.0 0.00 0.01 0.00 71 1024.2
20221208174223 54 326 1.0 5.0 0.00 0.01 0.00 71 1024.2
20221208174120 54 324 1.0 5.0 0.00 0.01 0.00 71 1024.2
20221208174014 54 334 1.0 5.0 0.00 0.01 0.00 71 1024.2
20221208173912 54 334 1.0 5.0 0.00 0.01 0.00 70 1024.2
20221208173806 54 355 1.0 5.0 0.00 0.01 0.00 70 1024.2
20221208173703 54 42 1.0 5.0 0.00 0.01 0.00 72 1024.2
20221208173555 54 355 1.0 4.0 0.00 0.01 0.00 72 1024.2
20221208173448 54 355 0.0 4.0 0.00 0.01 0.00 72 1024.2
20221208173345 54 0 1.0 4.0 0.00 0.01 0.00 72 1024.1
20221208173237 54 0 1.0 4.0 0.00 0.01 0.00 72 1024.1
20221208173134 54 0 1.0 4.0 0.00 0.01 0.00 71 1024.0
20221208173026 54 0 0.0 4.0 0.00 0.01 0.00 71 1024.0
20221208172657 54 355 0.0 6.0 0.00 0.01 0.00 73 1023.8
20221208172554 54 355 0.0 6.0 0.00 0.01 0.00 72 1023.8
20221208172452 54 355 1.0 6.0 0.00 0.01 0.00 73 1023.7
20221208172347 54 355 1.0 6.0 0.00 0.01 0.00 72 1023.7
20221208172243 53 355 1.0 6.0 0.00 0.01 0.00 72 1023.6
20221208172135 53 355 1.0 6.0 0.00 0.01 0.00 72 1023.5
20221208172031 53 355 1.0 6.0 0.00 0.01 0.00 72 1023.6
20221208171925 53 355 1.0 6.0 0.00 0.01 0.00 72 1023.7
20221208171820 53 355 1.0 6.0 0.00 0.01 0.00 72 1023.7
20221208171712 53 355 1.0 6.0 0.00 0.01 0.00 71 1023.8
20221208171608 53 355 1.0 6.0 0.00 0.01 0.00 71 1024.0
20221208171500 53 355 1.0 6.0 0.00 0.01 0.00 71 1024.1
20221208171357 53 355 1.0 6.0 0.00 0.01 0.00 71 1024.1
20221208170810 54 0 0.0 6.0 0.00 0.01 0.00 73 1024.2
20221208170705 54 344 0.0 4.0 0.00 0.01 0.00 74 1024.3
20221208170602 54 26 0.0 5.0 0.00 0.01 0.00 73 1024.3
20221208170454 54 26 0.0 5.0 0.00 0.01 0.00 73 1024.3
20221208170129 54 26 1.0 5.0 0.00 0.01 0.00 73 1024.4
20221208165102 54 18 1.0 7.0 0.00 0.01 0.00 72 1024.5
20221208164955 54 18 2.0 7.0 0.00 0.01 0.00 72 1024.5
20221208164630 54 350 2.0 7.0 0.00 0.01 0.00 73 1024.5
20221208164523 54 309 2.0 7.0 0.00 0.01 0.00 73 1024.5
20221208164419 54 0 2.0 7.0 0.00 0.01 0.00 73 1024.6
20221208164313 54 0 2.0 7.0 0.00 0.01 0.00 73 1024.5
20221208164206 54 0 2.0 7.0 0.00 0.01 0.00 73 1024.6
20221208164101 54 342 2.0 7.0 0.00 0.01 0.00 73 1024.6
20221208163953 54 325 2.0 7.0 0.00 0.01 0.00 73 1024.7
20221208163847 54 310 2.0 7.0 0.00 0.01 0.00 73 1024.7
20221208163741 54 321 2.0 7.0 0.00 0.01 0.00 74 1024.7
20221208163639 54 329 2.0 7.0 0.00 0.01 0.00 75 1024.7
20221208163536 54 326 2.0 6.0 0.00 0.01 0.00 75 1024.6
20221208163429 54 322 2.0 6.0 0.00 0.01 0.00 76 1024.6
20221208163101 54 335 2.0 5.0 0.00 0.01 0.00 77 1024.7
20221208162956 54 317 2.0 5.0 0.00 0.01 0.00 77 1024.7
20221208162849 54 298 2.0 5.0 0.00 0.01 0.00 77 1024.7
20221208162524 54 344 1.0 4.0 0.00 0.01 0.00 77 1024.7
20221208162418 54 342 1.0 4.0 0.00 0.01 0.00 77 1024.7
20221208162316 54 342 1.0 4.0 0.00 0.01 0.00 78 1024.7
20221208162212 54 341 1.0 3.0 0.00 0.01 0.00 79 1024.7
20221208161845 54 341 0.0 3.0 0.00 0.01 0.00 79 1024.7
20221208161520 53 341 0.0 3.0 0.00 0.01 0.00 81 1024.8
20221208161416 53 341 0.0 3.0 0.00 0.01 0.00 81 1024.9
20221208161313 53 298 0.0 2.0 0.00 0.01 0.00 81 1024.9
20221208161206 53 298 0.0 1.0 0.00 0.01 0.00 81 1025.0
20221208161103 53 298 0.0 1.0 0.00 0.01 0.00 81 1025.0
20221208160955 53 298 0.0 0.0 0.00 0.01 0.00 81 1025.0
20221208160847 53 298 0.0 1.0 0.00 0.01 0.00 81 1025.0
20221208160745 53 298 0.0 1.0 0.00 0.01 0.00 81 1025.1
20221208160640 53 298 0.0 0.0 0.00 0.01 0.00 81 1025.2
20221208160530 53 298 0.0 1.0 0.00 0.01 0.00 81 1025.2
20221208160424 53 298 0.0 1.0 0.00 0.01 0.00 81 1025.3
20221208160322 53 298 0.0 1.0 0.00 0.01 0.00 81 1025.4
20221208160217 53 298 0.0 1.0 0.00 0.01 0.00 81 1025.4
20221208160114 53 298 0.0 0.0 0.00 0.01 0.00 81 1025.4
20221208155750 53 298 1.0 4.0 0.00 0.01 0.00 82 1025.5
20221208155645 53 297 1.0 4.0 0.00 0.01 0.00 82 1025.6
20221208155320 52 340 1.0 4.0 0.00 0.01 0.00 83 1025.6
20221208155212 52 339 0.0 4.0 0.00 0.01 0.00 83 1025.7
20221208155105 52 329 0.0 4.0 0.00 0.01 0.00 83 1025.6
20221208155002 52 329 0.0 4.0 0.00 0.01 0.00 83 1025.6
20221208154858 52 315 0.0 3.0 0.00 0.01 0.00 83 1025.6
20221208154751 52 34 0.0 3.0 0.00 0.01 0.00 83 1025.6
20221208154647 52 355 0.0 3.0 0.00 0.01 0.00 83 1025.6
20221208154316 52 355 0.0 0.0 0.00 0.01 0.00 82 1025.6
20221208154209 52 355 1.0 3.0 0.00 0.01 0.00 82 1025.7
20221208154107 52 355 1.0 3.0 0.00 0.01 0.00 81 1025.7
20221208153741 51 324 0.0 2.0 0.00 0.01 0.00 77 1025.5
20221208153638 51 29 0.0 4.0 0.00 0.01 0.00 76 1025.5
20221208153531 51 30 0.0 4.0 0.00 0.01 0.00 71 1025.5
20221208153423 51 34 0.0 4.0 0.00 0.01 0.00 68 1025.5
20221208153318 51 26 0.0 3.0 0.00 0.01 0.00 66 1025.5
20221208152732 50 316 0.0 0.0 0.00 0.01 0.00 58 1025.3
20221208152412 50 14 1.0 3.0 0.00 0.01 0.00 56 1025.3
20221208152310 50 14 1.0 3.0 0.00 0.01 0.00 56 1025.2
20221208152203 50 14 1.0 3.0 0.00 0.01 0.00 56 1025.2
20221208152059 50 14 1.0 3.0 0.00 0.01 0.00 55 1025.2
20221208151731 50 331 1.0 3.0 0.00 0.01 0.00 55 1025.0
20221208151626 50 331 1.0 3.0 0.00 0.01 0.00 54 1025.0
20221208151520 49 331 1.0 4.0 0.00 0.01 0.00 54 1025.1
20221208151413 49 331 1.0 4.0 0.00 0.01 0.00 54 1025.1
20221208151306 49 331 1.0 4.0 0.00 0.01 0.00 54 1025.0
20221208151203 49 331 1.0 4.0 0.00 0.01 0.00 54 1025.0
20221208151100 49 320 1.0 4.0 0.00 0.01 0.00 54 1024.9
20221208150957 49 320 1.0 4.0 0.00 0.01 0.00 54 1025.0
20221208150852 49 315 1.0 4.0 0.00 0.01 0.00 54 1025.0
20221208150747 49 313 1.0 4.0 0.00 0.02 0.00 54 1024.9
20221208150643 49 313 1.0 4.0 0.00 0.02 0.00 54 1024.9
20221208150540 49 313 1.0 6.0 0.00 0.02 0.00 54 1024.8
20221208150436 49 313 1.0 6.0 0.00 0.02 0.00 54 1024.8
20221208150330 49 313 1.0 6.0 0.00 0.02 0.00 54 1024.9
20221208150227 49 312 1.0 6.0 0.00 0.02 0.00 54 1024.8
20221208145858 49 0 1.0 6.0 0.00 0.02 0.00 54 1024.6
20221208145751 48 9 1.0 6.0 0.00 0.02 0.00 54 1024.6
20221208145645 48 9 1.0 6.0 0.00 0.02 0.00 54 1024.7
20221208145054 48 13 1.0 6.0 0.00 0.02 0.00 54 1024.8
20221208144952 48 13 1.0 6.0 0.00 0.02 0.00 54 1024.7
20221208144845 48 26 1.0 6.0 0.00 0.02 0.00 54 1024.7
20221208144743 48 32 1.0 6.0 0.00 0.02 0.00 54 1024.6
20221208144638 49 32 1.0 6.0 0.00 0.03 0.00 54 1024.6
20221208144052 49 34 0.0 3.0 0.00 0.03 0.00 54 1024.8
20221208143942 49 34 0.0 3.0 0.00 0.03 0.00 54 1024.8
20221208143351 49 10 0.0 2.0 0.00 0.04 0.00 54 1024.9
20221208143246 49 148 0.0 0.0 0.00 0.04 0.00 54 1024.9
20221208143139 49 148 0.0 0.0 0.00 0.04 0.00 54 1025.0
20221208142813 49 148 0.0 0.0 0.00 0.04 0.00 54 1025.1
20221208142706 49 148 0.0 0.0 0.00 0.04 0.00 54 1025.2
20221208142601 49 148 0.0 0.0 0.00 0.04 0.00 54 1025.1
20221208142456 49 148 0.0 0.0 0.00 0.04 0.00 54 1025.1
20221208142351 49 148 0.0 0.0 0.00 0.04 0.00 54 1025.0
20221208142248 49 148 0.0 0.0 0.00 0.04 0.00 54 1025.0
20221208142140 49 148 0.0 0.0 0.00 0.04 0.00 54 1024.9
20221208142036 48 148 0.0 2.0 0.00 0.04 0.00 54 1024.9
20221208141930 48 148 0.0 2.0 0.00 0.04 0.00 54 1024.9
20221208141824 48 148 0.0 2.0 0.00 0.04 0.00 54 1024.9
20221208141718 48 126 0.0 2.0 0.00 0.04 0.00 54 1024.9
20221208141610 48 355 0.0 0.0 0.00 0.04 0.00 54 1024.9
20221208141506 48 355 0.0 0.0 0.00 0.04 0.00 54 1024.8
20221208141138 48 355 0.0 0.0 0.00 0.04 0.00 55 1024.8
20221208140813 48 355 0.0 2.0 0.00 0.04 0.00 55 1024.7
20221208140445 48 5 0.0 2.0 0.00 0.05 0.00 55 1024.6
20221208140343 47 5 0.0 2.0 0.00 0.05 0.00 55 1024.6
20221208140240 47 5 0.0 2.0 0.00 0.05 0.00 55 1024.5
20221208135911 47 5 0.0 2.0 0.00 0.05 0.00 55 1024.5
20221208135805 47 5 0.0 2.0 0.00 0.05 0.00 55 1024.5
20221208135701 47 5 0.0 2.0 0.00 0.05 0.00 55 1024.5
20221208135554 47 13 0.0 2.0 0.00 0.05 0.00 55 1024.4
20221208135446 47 13 0.0 2.0 0.00 0.05 0.00 55 1024.5
20221208135343 47 13 0.0 2.0 0.00 0.05 0.00 55 1024.5
20221208135236 47 13 0.0 2.0 0.00 0.05 0.00 55 1024.6
20221208135131 47 13 0.0 2.0 0.00 0.05 0.00 55 1024.6
20221208135026 46 13 0.0 2.0 0.00 0.05 0.00 55 1024.7
20221208134920 46 317 0.0 0.0 0.00 0.05 0.00 56 1024.7
20221208134557 46 317 0.0 0.0 0.00 0.05 0.00 56 1024.5
20221208134453 46 317 0.0 0.0 0.00 0.05 0.00 56 1024.5
20221208134348 46 317 0.0 0.0 0.00 0.05 0.00 56 1024.4
20221208134242 46 317 0.0 1.0 0.00 0.05 0.00 56 1024.3
20221208134134 46 317 0.0 1.0 0.00 0.05 0.00 56 1024.4
20221208134032 46 317 0.0 0.0 0.00 0.06 0.00 56 1024.5
20221208133708 46 317 0.0 0.0 0.00 0.06 0.00 56 1024.6
20221208133601 46 317 0.0 0.0 0.00 0.06 0.00 56 1024.6
20221208133455 46 317 0.0 0.0 0.00 0.06 0.00 56 1024.6
20221208133349 46 317 0.0 0.0 0.00 0.06 0.00 56 1024.6
20221208133241 46 317 0.0 0.0 0.00 0.06 0.00 56 1024.5
20221208133137 46 317 0.0 0.0 0.00 0.06 0.00 56 1024.5
20221208133035 46 317 0.0 0.0 0.00 0.06 0.00 56 1024.5
20221208132931 46 317 0.0 0.0 0.00 0.06 0.00 56 1024.5
20221208132826 46 317 0.0 0.0 0.00 0.06 0.00 56 1024.6
20221208132719 46 317 0.0 0.0 0.00 0.06 0.00 56 1024.5
20221208132615 46 317 0.0 0.0 0.00 0.06 0.00 56 1024.6
20221208132512 46 317 0.0 0.0 0.00 0.06 0.00 56 1024.6
20221208132405 46 317 0.0 0.0 0.00 0.06 0.00 56 1024.6
20221208132259 46 317 0.0 0.0 0.00 0.06 0.00 56 1024.6
20221208131709 46 317 0.0 0.0 0.00 0.06 0.00 56 1024.4
20221208131606 46 317 0.0 0.0 0.00 0.06 0.00 56 1024.3
20221208131501 46 317 0.0 0.0 0.00 0.06 0.00 56 1024.2
20221208131355 45 317 0.0 0.0 0.00 0.06 0.00 56 1024.1
20221208131251 45 317 0.0 0.0 0.00 0.06 0.00 56 1024.1
20221208131145 45 317 0.0 0.0 0.00 0.06 0.00 56 1024.1
20221208131038 45 317 0.0 0.0 0.00 0.06 0.00 56 1024.1
20221208130932 45 317 0.0 0.0 0.00 0.06 0.00 57 1024.1
20221208130609 45 317 0.0 0.0 0.00 0.06 0.00 57 1024.0
20221208130503 45 317 0.0 0.0 0.00 0.06 0.00 57 1023.9
20221208130356 45 317 0.0 0.0 0.00 0.07 0.00 57 1023.9
20221208130251 45 317 0.0 0.0 0.00 0.07 0.00 57 1023.9
20221208125927 45 317 0.0 0.0 0.00 0.07 0.00 57 1023.8
20221208125825 45 317 0.0 0.0 0.00 0.07 0.00 57 1023.7
20221208125719 45 317 0.0 0.0 0.00 0.07 0.00 57 1023.8
20221208125352 45 317 0.0 0.0 0.00 0.07 0.00 57 1024.1
20221208125249 45 317 0.0 0.0 0.00 0.07 0.00 57 1024.1
20221208125141 45 317 0.0 0.0 0.00 0.07 0.00 57 1024.2
20221208125037 45 317 0.0 0.0 0.00 0.07 0.00 57 1024.2
20221208124928 45 317 0.0 0.0 0.00 0.07 0.00 57 1024.2
20221208124825 45 317 0.0 0.0 0.00 0.07 0.00 57 1024.2
20221208124722 45 317 0.0 0.0 0.00 0.07 0.00 57 1024.2
20221208124619 45 317 0.0 0.0 0.00 0.07 0.00 57 1024.2
20221208124516 45 317 0.0 0.0 0.00 0.07 0.00 57 1024.2
20221208124146 45 317 0.0 0.0 0.00 0.07 0.00 57 1024.1
20221208123817 45 317 0.0 0.0 0.00 0.07 0.00 57 1024.3
20221208123715 45 317 0.0 0.0 0.00 0.07 0.00 57 1024.4
20221208123608 45 317 0.0 0.0 0.00 0.07 0.00 57 1024.3
20221208123506 45 317 0.0 0.0 0.00 0.07 0.00 57 1024.4
20221208123359 45 317 0.0 0.0 0.00 0.07 0.00 57 1024.4
20221208122813 45 317 0.0 0.0 0.00 0.07 0.00 57 1024.5
20221208122707 45 317 0.0 0.0 0.00 0.07 0.00 57 1024.5
20221208122340 45 317 0.0 0.0 0.00 0.07 0.00 57 1024.5
20221208122017 45 317 0.0 0.0 0.00 0.07 0.00 58 1024.5
20221208121911 45 317 0.0 0.0 0.00 0.07 0.00 58 1024.5
20221208121809 45 317 0.0 0.0 0.00 0.07 0.00 58 1024.5
20221208121705 45 317 0.0 1.0 0.00 0.07 0.00 58 1024.4
20221208121600 45 317 0.0 1.0 0.00 0.08 0.00 58 1024.4
20221208121232 45 317 0.0 0.0 0.00 0.08 0.00 57 1024.3
20221208121127 45 317 0.0 0.0 0.00 0.08 0.00 57 1024.4
20221208121019 45 317 0.0 0.0 0.00 0.08 0.00 57 1024.4
20221208120913 46 317 0.0 0.0 0.00 0.08 0.00 57 1024.5
20221208120810 46 317 0.0 2.0 0.00 0.08 0.00 57 1024.4
20221208120705 46 317 0.0 2.0 0.00 0.08 0.00 57 1024.5
20221208120558 46 317 0.0 2.0 0.00 0.08 0.00 57 1024.4
20221208120455 46 317 0.0 2.0 0.00 0.08 0.00 56 1024.5
20221208120350 46 317 0.0 2.0 0.00 0.08 0.00 56 1024.5
20221208120243 46 317 0.0 0.0 0.00 0.08 0.00 56 1024.4
20221208115918 46 317 0.0 0.0 0.00 0.08 0.00 56 1024.3
20221208115810 46 317 0.0 0.0 0.00 0.08 0.00 56 1024.3
20221208115703 46 317 0.0 0.0 0.00 0.08 0.00 56 1024.3
20221208115600 46 317 0.0 0.0 0.00 0.08 0.00 56 1024.4
20221208115454 46 317 0.0 0.0 0.00 0.08 0.00 56 1024.4
20221208115349 46 317 0.0 0.0 0.00 0.08 0.00 56 1024.5
20221208115027 46 317 0.0 0.0 0.00 0.08 0.00 56 1024.4
20221208114702 46 317 0.0 0.0 0.00 0.08 0.00 56 1024.3
20221208114335 46 317 0.0 0.0 0.00 0.08 0.00 56 1024.2
20221208114228 46 317 0.0 0.0 0.00 0.08 0.00 56 1024.1
20221208114124 46 317 0.0 0.0 0.00 0.08 0.00 56 1024.1
20221208114021 47 317 0.0 0.0 0.00 0.08 0.00 56 1024.0
20221208113656 47 317 0.0 0.0 0.00 0.08 0.00 56 1023.9
20221208113333 47 317 0.0 0.0 0.00 0.08 0.00 56 1023.8
20221208113226 47 317 0.0 0.0 0.00 0.08 0.00 56 1023.8
20221208113120 47 317 0.0 0.0 0.00 0.08 0.00 56 1023.8
20221208113013 47 317 0.0 0.0 0.00 0.08 0.00 56 1023.8
20221208112909 47 317 0.0 0.0 0.00 0.08 0.00 56 1023.8
20221208112541 47 317 0.0 0.0 0.00 0.08 0.00 56 1023.7
20221208112436 47 317 0.0 0.0 0.00 0.08 0.00 56 1023.7
20221208112110 47 317 0.0 0.0 0.00 0.08 0.00 56 1023.7
20221208112004 47 317 0.0 0.0 0.00 0.08 0.00 56 1023.7
20221208111858 47 317 0.0 0.0 0.00 0.08 0.00 56 1023.7
20221208111756 47 317 0.0 0.0 0.00 0.08 0.00 56 1023.7
20221208111649 47 317 0.0 0.0 0.00 0.08 0.00 56 1023.7
20221208111543 47 317 0.0 0.0 0.00 0.08 0.00 56 1023.7
20221208111436 47 317 0.0 0.0 0.00 0.08 0.00 56 1023.6
20221208111329 47 317 0.0 0.0 0.00 0.08 0.00 56 1023.5
20221208111223 47 317 0.0 0.0 0.00 0.08 0.00 56 1023.6
20221208110856 47 317 0.0 0.0 0.00 0.08 0.00 56 1023.6
20221208110747 47 317 0.0 0.0 0.00 0.08 0.00 56 1023.5
20221208110642 47 317 0.0 0.0 0.00 0.08 0.00 56 1023.5
20221208110538 47 317 0.0 0.0 0.00 0.08 0.00 56 1023.5
20221208110434 47 317 0.0 0.0 0.00 0.08 0.00 56 1023.5
20221208110327 47 317 0.0 0.0 0.00 0.08 0.00 56 1023.5
20221208110224 47 317 0.0 0.0 0.00 0.08 0.00 56 1023.5
20221208110116 47 317 0.0 0.0 0.00 0.08 0.00 56 1023.5
20221208105533 47 317 0.0 0.0 0.00 0.08 0.00 56 1023.4
20221208105425 47 317 0.0 0.0 0.00 0.08 0.00 56 1023.4
20221208105322 47 317 0.0 0.0 0.00 0.08 0.00 56 1023.4
20221208105214 47 317 0.0 0.0 0.00 0.08 0.00 56 1023.4
20221208104850 47 317 0.0 0.0 0.00 0.08 0.00 56 1023.2
20221208104524 47 317 0.0 0.0 0.00 0.08 0.00 56 1023.1
20221208104417 47 317 0.0 0.0 0.00 0.08 0.00 56 1023.0
20221208104312 47 317 0.0 0.0 0.00 0.08 0.00 56 1023.1
20221208104206 47 317 0.0 0.0 0.00 0.08 0.00 56 1023.0
20221208104102 47 317 0.0 0.0 0.00 0.08 0.00 56 1023.0
20221208103954 47 317 0.0 0.0 0.00 0.08 0.00 56 1023.0
20221208103627 47 317 0.0 0.0 0.00 0.08 0.00 56 1022.9
20221208103520 47 317 0.0 0.0 0.00 0.08 0.00 56 1022.9
20221208103416 47 317 0.0 0.0 0.00 0.08 0.00 56 1022.9
20221208103053 47 317 0.0 0.0 0.00 0.08 0.00 56 1023.1
20221208102950 47 317 0.0 0.0 0.00 0.08 0.00 56 1023.1
20221208102844 47 317 0.0 0.0 0.00 0.08 0.00 56 1023.2
20221208102739 47 317 0.0 0.0 0.00 0.08 0.00 56 1023.2
20221208102633 47 317 0.0 0.0 0.00 0.08 0.00 56 1023.2
20221208102529 47 317 0.0 0.0 0.00 0.08 0.00 56 1023.2
20221208102424 47 317 0.0 0.0 0.00 0.08 0.00 56 1023.1
20221208102320 47 317 0.0 0.0 0.00 0.08 0.00 56 1023.1
20221208102217 47 317 0.0 0.0 0.00 0.08 0.00 56 1023.0
20221208101851 47 317 0.0 0.0 0.00 0.08 0.00 56 1022.9
20221208101523 47 317 0.0 0.0 0.00 0.08 0.00 56 1022.9
20221208101416 47 317 0.0 0.0 0.00 0.08 0.00 56 1023.0
20221208101313 47 317 0.0 0.0 0.00 0.08 0.00 56 1022.9
20221208101211 47 317 0.0 0.0 0.00 0.08 0.00 56 1022.9
20221208101106 47 317 0.0 0.0 0.00 0.08 0.00 56 1022.7
20221208100742 47 317 0.0 0.0 0.00 0.08 0.00 56 1022.7
20221208100634 47 317 0.0 0.0 0.00 0.08 0.00 56 1022.6
20221208100527 47 317 0.0 0.0 0.00 0.08 0.00 56 1022.6
20221208100422 47 317 0.0 0.0 0.00 0.08 0.00 56 1022.7
20221208100056 47 317 0.0 0.0 0.00 0.08 0.00 56 1022.6
20221208095951 47 317 0.0 0.0 0.00 0.08 0.00 56 1022.6
20221208095844 47 317 0.0 0.0 0.00 0.08 0.00 56 1022.6
20221208095740 47 317 0.0 0.0 0.00 0.08 0.00 56 1022.6
20221208095413 47 317 0.0 0.0 0.00 0.08 0.00 56 1022.7
20221208095311 47 317 0.0 0.0 0.00 0.08 0.00 56 1022.6
20221208095207 47 317 0.0 0.0 0.00 0.08 0.00 56 1022.6
20221208094845 47 317 0.0 0.0 0.00 0.08 0.00 56 1022.8
20221208094742 47 317 0.0 0.0 0.00 0.08 0.00 56 1022.9
20221208094416 47 317 0.0 0.0 0.00 0.08 0.00 56 1022.9
20221208094308 47 317 0.0 0.0 0.00 0.08 0.00 56 1022.9
20221208094203 47 317 0.0 0.0 0.00 0.08 0.00 56 1022.9
20221208094058 47 317 0.0 0.0 0.00 0.08 0.00 56 1022.9
20221208093956 47 317 0.0 0.0 0.00 0.08 0.00 56 1022.9
20221208093852 47 317 0.0 0.0 0.00 0.08 0.00 56 1022.8
20221208093748 47 317 0.0 0.0 0.00 0.08 0.00 56 1022.9
20221208093642 47 317 0.0 0.0 0.00 0.08 0.00 56 1022.9
20221208093534 47 317 0.0 0.0 0.00 0.08 0.00 56 1022.8
20221208093429 47 317 0.0 0.0 0.00 0.08 0.00 56 1022.8
20221208093326 47 317 0.0 0.0 0.00 0.08 0.00 56 1022.8
20221208093220 47 317 0.0 0.0 0.00 0.08 0.00 56 1022.8
20221208093116 47 317 0.0 0.0 0.00 0.08 0.00 56 1022.7
20221208092755 47 317 0.0 0.0 0.00 0.08 0.00 56 1022.5
20221208092650 47 317 0.0 0.0 0.00 0.08 0.00 56 1022.5
20221208092547 47 317 0.0 0.0 0.00 0.08 0.00 56 1022.5
20221208092442 47 317 0.0 0.0 0.00 0.08 0.00 56 1022.5
20221208092338 47 317 0.0 0.0 0.00 0.08 0.00 56 1022.5
20221208092231 47 317 0.0 0.0 0.00 0.08 0.00 56 1022.5
20221208092124 47 317 0.0 0.0 0.00 0.08 0.00 56 1022.6
20221208092021 47 317 0.0 0.0 0.00 0.08 0.00 56 1022.6
20221208091917 47 317 0.0 0.0 0.00 0.08 0.00 56 1022.6
20221208091813 47 317 0.0 0.0 0.00 0.08 0.00 56 1022.6
20221208091709 47 317 0.0 0.0 0.00 0.08 0.00 56 1022.6
20221208091601 47 317 0.0 0.0 0.00 0.08 0.00 56 1022.6
20221208091458 47 317 0.0 0.0 0.00 0.08 0.00 56 1022.6
20221208090914 47 317 0.0 0.0 0.00 0.08 0.00 56 1022.6
20221208090811 47 317 0.0 0.0 0.00 0.08 0.00 56 1022.5
20221208090446 47 317 0.0 0.0 0.00 0.08 0.00 56 1022.6
20221208090340 47 317 0.0 0.0 0.00 0.08 0.00 56 1022.6
20221208090233 47 317 0.0 0.0 0.00 0.08 0.00 56 1022.5
20221208090130 47 317 0.0 0.0 0.00 0.08 0.00 56 1022.5
20221208090028 47 317 0.0 0.0 0.00 0.08 0.00 56 1022.5
20221208085923 47 317 0.0 0.0 0.00 0.08 0.00 56 1022.5
20221208085821 47 317 0.0 0.0 0.00 0.08 0.00 56 1022.5
20221208085718 47 317 0.0 0.0 0.00 0.08 0.00 56 1022.5
20221208085614 47 317 0.0 0.0 0.00 0.08 0.00 56 1022.5
20221208085512 47 317 0.0 0.0 0.00 0.08 0.00 56 1022.5
20221208085407 47 317 0.0 0.0 0.00 0.08 0.00 55 1022.5
20221208085300 47 317 0.0 0.0 0.00 0.08 0.00 55 1022.4
20221208085156 47 317 0.0 0.0 0.00 0.08 0.00 55 1022.4
20221208085049 47 317 0.0 0.0 0.00 0.08 0.00 55 1022.3
20221208084946 47 317 0.0 0.0 0.00 0.08 0.00 55 1022.4
20221208084842 47 317 0.0 0.0 0.00 0.08 0.00 55 1022.4
20221208084740 47 317 0.0 0.0 0.00 0.08 0.00 55 1022.4
20221208084637 47 317 0.0 0.0 0.00 0.08 0.00 55 1022.5
20221208084529 47 317 0.0 0.0 0.00 0.08 0.00 55 1022.5
20221208084207 47 317 0.0 0.0 0.00 0.08 0.00 56 1022.5
20221208084104 47 317 0.0 0.0 0.00 0.08 0.00 56 1022.5
20221208083959 47 317 0.0 0.0 0.00 0.08 0.00 56 1022.6
20221208083854 47 317 0.0 0.0 0.00 0.08 0.00 56 1022.6
20221208083750 47 317 0.0 0.0 0.00 0.08 0.00 56 1022.6
20221208083647 47 317 0.0 0.0 0.00 0.08 0.00 56 1022.6
20221208083545 47 317 0.0 0.0 0.00 0.08 0.00 56 1022.6
20221208083224 47 317 0.0 0.0 0.00 0.08 0.00 56 1022.6
20221208083118 47 317 0.0 0.0 0.00 0.08 0.00 56 1022.5
20221208083014 47 317 0.0 0.0 0.00 0.08 0.00 56 1022.6
20221208082911 47 317 0.0 0.0 0.00 0.08 0.00 56 1022.5
20221208082804 47 317 0.0 0.0 0.00 0.08 0.00 56 1022.5
20221208082656 47 317 0.0 0.0 0.00 0.08 0.00 56 1022.4
20221208082549 47 317 0.0 0.0 0.00 0.08 0.00 56 1022.4
20221208082444 47 317 0.0 0.0 0.00 0.08 0.00 56 1022.4
20221208082121 47 317 0.0 1.0 0.00 0.08 0.00 56 1022.4
20221208081759 47 317 0.0 0.0 0.00 0.08 0.00 55 1022.4
20221208081654 47 317 0.0 0.0 0.00 0.08 0.00 55 1022.4
20221208081546 47 317 0.0 0.0 0.00 0.08 0.00 56 1022.5
20221208081439 47 317 0.0 0.0 0.00 0.08 0.00 55 1022.4
20221208081334 47 317 0.0 0.0 0.00 0.08 0.00 56 1022.4
20221208081230 47 317 0.0 0.0 0.00 0.08 0.00 56 1022.4
20221208081125 47 317 0.0 0.0 0.00 0.08 0.00 56 1022.4
20221208081022 47 317 0.0 0.0 0.00 0.08 0.00 56 1022.4
20221208080918 47 317 0.0 0.0 0.00 0.08 0.00 56 1022.4
20221208080810 47 317 0.0 0.0 0.00 0.08 0.00 56 1022.5
20221208080703 47 317 0.0 0.0 0.00 0.08 0.00 56 1022.5
20221208080601 47 317 0.0 0.0 0.00 0.08 0.00 56 1022.6
20221208080455 47 317 0.0 0.0 0.00 0.08 0.00 56 1022.6
20221208080124 47 317 0.0 0.0 0.00 0.08 0.00 56 1022.6
20221208080017 47 317 0.0 1.0 0.00 0.08 0.00 56 1022.6
20221208075912 47 317 0.0 1.0 0.00 0.08 0.00 56 1022.6
20221208075808 47 317 0.0 0.0 0.00 0.08 0.00 56 1022.5
20221208075225 47 317 0.0 0.0 0.00 0.08 0.00 56 1022.4
20221208075121 47 317 0.0 0.0 0.00 0.08 0.00 56 1022.4
20221208075015 47 317 0.0 0.0 0.00 0.08 0.00 56 1022.4
20221208074910 47 317 0.0 0.0 0.00 0.08 0.00 56 1022.4
20221208074807 47 317 0.0 0.0 0.00 0.08 0.00 56 1022.4
20221208074704 47 317 0.0 0.0 0.00 0.08 0.00 56 1022.3
20221208074341 47 317 0.0 0.0 0.00 0.08 0.00 56 1022.4
20221208074236 47 317 0.0 0.0 0.00 0.08 0.00 56 1022.3
20221208074127 47 317 0.0 0.0 0.00 0.08 0.00 56 1022.3
20221208074020 47 317 0.0 0.0 0.00 0.08 0.00 56 1022.3
20221208073918 47 317 0.0 0.0 0.00 0.08 0.00 56 1022.3
20221208073816 47 317 0.0 0.0 0.00 0.08 0.00 56 1022.3
20221208073711 47 317 0.0 0.0 0.00 0.08 0.00 56 1022.3
20221208073605 47 317 0.0 0.0 0.00 0.08 0.00 56 1022.4
20221208073457 47 317 0.0 0.0 0.00 0.08 0.00 56 1022.4
20221208073354 47 317 0.0 0.0 0.00 0.08 0.00 56 1022.3
20221208073248 47 317 0.0 0.0 0.00 0.08 0.00 56 1022.3
20221208073145 48 317 0.0 0.0 0.00 0.08 0.00 56 1022.3
20221208073039 48 317 0.0 0.0 0.00 0.08 0.00 56 1022.3
20221208072718 48 317 0.0 0.0 0.00 0.08 0.00 56 1022.3
20221208072612 48 317 0.0 0.0 0.00 0.08 0.00 56 1022.3
20221208072507 48 317 0.0 0.0 0.00 0.08 0.00 55 1022.3
20221208071922 48 317 0.0 0.0 0.00 0.08 0.00 55 1022.2
20221208071819 48 317 0.0 0.0 0.00 0.08 0.00 55 1022.3
20221208071714 48 317 0.0 0.0 0.00 0.08 0.00 55 1022.3
20221208071347 48 317 0.0 0.0 0.00 0.08 0.00 55 1022.2
20221208071243 48 317 0.0 0.0 0.00 0.08 0.00 55 1022.1
20221208071136 48 317 0.0 0.0 0.00 0.08 0.00 55 1022.1
20221208070554 48 317 0.0 0.0 0.00 0.08 0.00 55 1022.1
20221208070006 48 317 0.0 0.0 0.00 0.08 0.00 55 1022.1
20221208065902 48 317 0.0 0.0 0.00 0.08 0.00 55 1022.0
20221208065758 48 317 0.0 0.0 0.00 0.08 0.00 55 1022.0
20221208065650 48 317 0.0 0.0 0.00 0.08 0.00 55 1022.0
20221208065545 48 317 0.0 0.0 0.00 0.08 0.00 55 1021.9
20221208065442 48 317 0.0 0.0 0.00 0.08 0.00 55 1021.9
20221208065339 48 317 0.0 0.0 0.00 0.08 0.00 55 1021.9
20221208065234 48 317 0.0 0.0 0.00 0.08 0.00 55 1021.9
20221208065131 48 317 0.0 0.0 0.00 0.08 0.00 55 1021.9
20221208065026 48 317 0.0 0.0 0.00 0.08 0.00 55 1021.9
20221208064920 48 317 0.0 0.0 0.00 0.08 0.00 55 1021.9
20221208064817 48 317 0.0 0.0 0.00 0.08 0.00 55 1021.9
20221208064715 48 317 0.0 0.0 0.00 0.08 0.00 55 1021.8
20221208064610 48 317 0.0 0.0 0.00 0.08 0.00 55 1021.8
20221208064507 48 317 0.0 0.0 0.00 0.08 0.00 55 1021.8
20221208063918 48 317 0.0 0.0 0.00 0.08 0.00 55 1021.8
20221208063816 48 317 0.0 0.0 0.00 0.08 0.00 55 1021.8
20221208063711 48 317 0.0 0.0 0.00 0.08 0.00 55 1021.8
20221208063605 48 317 0.0 0.0 0.00 0.08 0.00 55 1021.8
20221208063503 48 317 0.0 0.0 0.00 0.08 0.00 55 1021.8
20221208063359 48 317 0.0 0.0 0.00 0.08 0.00 55 1021.8
20221208063256 48 317 0.0 0.0 0.00 0.08 0.00 55 1021.8
20221208063149 48 317 0.0 0.0 0.00 0.08 0.00 55 1021.8
20221208063041 48 317 0.0 0.0 0.00 0.08 0.00 55 1021.9
20221208062933 48 317 0.0 0.0 0.00 0.08 0.00 55 1021.8
20221208062825 48 317 0.0 0.0 0.00 0.08 0.00 55 1021.8
20221208062723 48 317 0.0 0.0 0.00 0.08 0.00 55 1021.8
20221208062620 48 317 0.0 0.0 0.00 0.08 0.00 55 1021.7
20221208062513 48 317 0.0 0.0 0.00 0.08 0.00 55 1021.8
20221208062410 48 317 0.0 0.0 0.00 0.08 0.00 55 1021.8
20221208061821 48 317 0.0 0.0 0.00 0.08 0.00 55 1021.9
20221208061718 48 317 0.0 0.0 0.00 0.08 0.00 55 1021.8
20221208061610 48 317 0.0 0.0 0.00 0.08 0.00 55 1021.8
20221208061506 48 317 0.0 0.0 0.00 0.08 0.00 55 1021.8
20221208061403 48 317 0.0 0.0 0.00 0.08 0.00 55 1021.8
20221208061300 48 317 0.0 0.0 0.00 0.08 0.00 55 1021.8
20221208061154 48 317 0.0 0.0 0.00 0.08 0.00 55 1021.8
20221208060829 48 317 0.0 0.0 0.00 0.08 0.00 55 1021.8
20221208060503 48 317 0.0 0.0 0.00 0.08 0.00 55 1021.8
20221208060356 48 317 0.0 0.0 0.00 0.08 0.00 55 1021.7
20221208060253 48 317 0.0 0.0 0.00 0.08 0.00 55 1021.8
20221208060146 48 317 0.0 0.0 0.00 0.08 0.00 55 1021.8
20221208060038 48 317 0.0 0.0 0.00 0.08 0.00 55 1021.8
20221208055931 48 317 0.0 0.0 0.00 0.08 0.00 55 1021.8
20221208055823 48 317 0.0 1.0 0.00 0.08 0.00 55 1021.8
20221208055720 48 317 0.0 1.0 0.00 0.08 0.00 55 1021.8
20221208055356 48 317 0.0 0.0 0.00 0.08 0.00 55 1021.9
20221208055253 48 317 0.0 0.0 0.00 0.08 0.00 55 1021.8
20221208055149 48 317 0.0 0.0 0.00 0.08 0.00 55 1021.9
20221208055046 48 317 0.0 0.0 0.00 0.08 0.00 55 1021.9
20221208054939 48 317 0.0 0.0 0.00 0.08 0.00 55 1021.8
20221208054834 48 317 0.0 0.0 0.00 0.08 0.00 55 1021.8
20221208054728 48 317 0.0 0.0 0.00 0.08 0.00 55 1021.8
20221208054626 48 317 0.0 0.0 0.00 0.08 0.00 55 1021.8
20221208054519 48 317 0.0 1.0 0.00 0.08 0.00 55 1021.8
20221208054412 48 317 0.0 1.0 0.00 0.08 0.00 55 1021.8
20221208054304 48 317 0.0 1.0 0.00 0.08 0.00 55 1021.9
20221208054201 48 317 0.0 1.0 0.00 0.08 0.00 55 1021.8
20221208054053 48 317 0.0 0.0 0.00 0.08 0.00 55 1021.9
20221208053949 48 317 0.0 0.0 0.00 0.08 0.00 55 1021.9
20221208053844 48 317 0.0 0.0 0.00 0.08 0.00 55 1021.8
20221208053740 48 317 0.0 0.0 0.00 0.08 0.00 55 1021.9
20221208053636 48 317 0.0 0.0 0.00 0.08 0.00 55 1021.8
20221208053532 48 317 0.0 0.0 0.00 0.08 0.00 55 1021.8
20221208053427 48 317 0.0 0.0 0.00 0.08 0.00 55 1021.8
20221208053320 48 317 0.0 0.0 0.00 0.08 0.00 55 1021.8
20221208053000 48 317 0.0 0.0 0.00 0.08 0.00 55 1021.8
20221208052855 48 317 0.0 0.0 0.00 0.08 0.00 55 1021.8
20221208052748 48 317 0.0 0.0 0.00 0.08 0.00 55 1021.8
20221208052423 49 317 0.0 1.0 0.00 0.08 0.00 55 1021.8
20221208052316 49 317 0.0 1.0 0.00 0.08 0.00 55 1021.7
20221208052208 49 317 0.0 1.0 0.00 0.08 0.00 55 1021.7
20221208051845 49 317 0.0 1.0 0.00 0.08 0.00 55 1021.7
20221208051741 49 317 0.0 1.0 0.00 0.08 0.00 55 1021.7
20221208051412 49 317 0.0 1.0 0.00 0.08 0.00 55 1021.8
20221208051308 49 317 0.0 1.0 0.00 0.08 0.00 55 1021.7
20221208051201 49 317 0.0 1.0 0.00 0.08 0.00 55 1021.7
20221208051054 49 317 0.0 1.0 0.00 0.08 0.00 55 1021.7
20221208050947 49 317 0.0 1.0 0.00 0.08 0.00 55 1021.6
20221208050845 49 317 0.0 1.0 0.00 0.08 0.00 55 1021.7
20221208050740 49 317 0.0 1.0 0.00 0.08 0.00 55 1021.6
20221208050635 49 317 0.0 1.0 0.00 0.08 0.00 55 1021.6
20221208050532 49 317 0.0 1.0 0.00 0.08 0.00 55 1021.6
20221208050424 49 317 0.0 1.0 0.00 0.08 0.00 55 1021.7
20221208050321 49 317 0.0 1.0 0.00 0.08 0.00 55 1021.7
20221208050216 49 317 0.0 1.0 0.00 0.08 0.00 55 1021.7
20221208050110 49 317 0.0 0.0 0.00 0.08 0.00 55 1021.8
20221208050003 49 317 0.0 0.0 0.00 0.08 0.08 55 1021.8
20221208045859 49 317 0.0 0.0 0.00 0.08 0.08 55 1021.9
20221208045752 49 317 0.0 0.0 0.00 0.08 0.08 55 1021.8
20221208045645 49 317 0.0 1.0 0.00 0.08 0.08 55 1021.8
20221208045540 49 317 0.0 1.0 0.00 0.08 0.08 55 1021.7
20221208045431 49 317 0.0 1.0 0.00 0.08 0.08 55 1021.7
20221208045327 49 317 0.0 1.0 0.00 0.08 0.08 54 1021.7
20221208045225 49 317 0.0 1.0 0.00 0.08 0.08 54 1021.6
20221208045119 50 317 0.0 1.0 0.00 0.08 0.08 54 1021.7
20221208045010 50 317 0.0 1.0 0.00 0.08 0.08 54 1021.7
20221208044903 50 317 0.0 0.0 0.00 0.08 0.08 54 1021.7
20221208044758 50 317 0.0 0.0 0.00 0.08 0.08 54 1021.7
20221208044654 50 317 0.0 0.0 0.00 0.08 0.08 54 1021.7
20221208044546 50 317 0.0 0.0 0.00 0.08 0.08 54 1021.7
20221208044441 50 317 0.0 0.0 0.00 0.08 0.08 54 1021.7
20221208044117 50 317 0.0 0.0 0.00 0.08 0.08 54 1021.6
20221208044014 50 317 0.0 1.0 0.00 0.08 0.08 54 1021.6
20221208043911 50 317 0.0 1.0 0.00 0.08 0.08 54 1021.6
20221208043805 50 317 0.0 1.0 0.00 0.08 0.08 54 1021.6
20221208043702 50 317 0.0 2.0 0.00 0.08 0.08 54 1021.6
20221208043557 50 317 0.0 2.0 0.00 0.08 0.08 54 1021.6
20221208043451 50 317 0.0 2.0 0.00 0.08 0.08 54 1021.6
20221208043345 50 317 0.0 2.0 0.00 0.08 0.08 54 1021.6
20221208043240 50 317 0.0 2.0 0.00 0.08 0.08 54 1021.7
20221208043133 50 317 0.0 2.0 0.00 0.08 0.08 54 1021.7
20221208043031 50 317 0.0 2.0 0.00 0.08 0.08 54 1021.6
20221208042924 50 317 0.0 2.0 0.00 0.08 0.08 54 1021.6
20221208042822 50 317 0.0 2.0 0.00 0.08 0.08 54 1021.6
20221208042717 50 317 0.0 2.0 0.00 0.08 0.08 54 1021.7
20221208042613 50 317 0.0 2.0 0.00 0.08 0.08 54 1021.7
20221208042508 50 317 0.0 2.0 0.00 0.08 0.08 54 1021.7
20221208042403 50 317 0.0 2.0 0.00 0.08 0.08 54 1021.7
20221208042300 50 317 0.0 2.0 0.00 0.08 0.08 54 1021.7
20221208042152 50 317 0.0 2.0 0.00 0.08 0.08 54 1021.7
20221208042049 50 317 0.0 2.0 0.00 0.08 0.08 54 1021.7
20221208041946 50 317 0.0 2.0 0.00 0.08 0.08 54 1021.7
20221208040701 51 317 0.0 2.0 0.00 0.08 0.08 54 1021.6
20221208040338 51 317 0.0 1.0 0.00 0.08 0.08 54 1021.6
20221208040233 51 317 0.0 0.0 0.00 0.08 0.08 54 1021.7
20221208035911 51 317 0.0 0.0 0.00 0.08 0.08 54 1021.7
20221208035805 51 317 0.0 0.0 0.00 0.08 0.08 54 1021.6
20221208035702 51 317 0.0 1.0 0.00 0.08 0.08 54 1021.6
20221208035555 51 317 0.0 1.0 0.00 0.08 0.08 54 1021.6
20221208035452 51 317 0.0 1.0 0.00 0.08 0.08 54 1021.6
20221208035124 51 317 0.0 0.0 0.00 0.08 0.08 54 1021.5
20221208035018 51 317 0.0 0.0 0.00 0.08 0.08 53 1021.6
20221208034911 51 317 0.0 0.0 0.00 0.08 0.08 53 1021.5
20221208034802 51 317 0.0 0.0 0.00 0.08 0.08 53 1021.5
20221208034655 51 317 0.0 0.0 0.00 0.08 0.08 53 1021.5
20221208034550 51 317 0.0 0.0 0.00 0.08 0.08 53 1021.5
20221208034447 51 317 0.0 0.0 0.00 0.08 0.08 53 1021.6
20221208034344 51 317 0.0 0.0 0.00 0.08 0.08 53 1021.6
20221208034241 51 317 0.0 0.0 0.00 0.08 0.08 53 1021.5
20221208034133 51 317 0.0 0.0 0.00 0.08 0.08 53 1021.5
20221208034025 51 317 0.0 0.0 0.00 0.08 0.08 53 1021.5
20221208033658 51 317 0.0 0.0 0.00 0.08 0.08 53 1021.5
20221208033328 51 317 0.0 0.0 0.00 0.08 0.08 53 1021.5
20221208033223 51 317 0.0 0.0 0.00 0.08 0.08 53 1021.4
20221208033120 51 317 0.0 0.0 0.00 0.08 0.08 53 1021.4
20221208033015 51 317 0.0 0.0 0.00 0.08 0.08 53 1021.5
20221208032212 51 317 0.0 0.0 0.00 0.08 0.08 53 1021.5
20221208032105 51 317 0.0 0.0 0.00 0.08 0.08 53 1021.5
20221208031957 51 317 0.0 0.0 0.00 0.08 0.08 53 1021.5
20221208031854 51 317 0.0 0.0 0.00 0.08 0.08 53 1021.5
20221208031749 51 317 0.0 0.0 0.00 0.08 0.08 53 1021.4
20221208031646 51 317 0.0 0.0 0.00 0.08 0.08 53 1021.4
20221208031539 51 317 0.0 0.0 0.00 0.08 0.08 53 1021.3
20221208031431 51 317 0.0 0.0 0.00 0.08 0.08 53 1021.3
20221208031327 51 317 0.0 0.0 0.00 0.08 0.08 53 1021.3
20221208031222 51 317 0.0 0.0 0.00 0.08 0.08 53 1021.3
20221208031118 51 317 0.0 0.0 0.00 0.08 0.08 53 1021.3
20221208031013 51 317 0.0 0.0 0.00 0.08 0.08 53 1021.2
20221208030910 51 317 0.0 0.0 0.00 0.08 0.08 53 1021.3
20221208030802 51 317 0.0 0.0 0.00 0.08 0.08 53 1021.2
20221208030700 51 317 0.0 0.0 0.00 0.08 0.08 53 1021.3
20221208030558 51 317 0.0 0.0 0.00 0.08 0.08 53 1021.2
20221208030455 51 317 0.0 0.0 0.00 0.08 0.08 53 1021.2
20221208030348 51 317 0.0 0.0 0.00 0.08 0.08 53 1021.2
20221208030243 51 317 0.0 0.0 0.00 0.08 0.08 53 1021.2
20221208030139 51 317 0.0 0.0 0.00 0.08 0.08 53 1021.1
20221208030036 51 317 0.0 0.0 0.00 0.08 0.08 53 1021.2
20221208025933 51 317 0.0 0.0 0.00 0.08 0.08 53 1021.2
20221208025827 51 317 0.0 0.0 0.00 0.08 0.08 53 1021.2
20221208025722 51 317 0.0 0.0 0.00 0.08 0.08 53 1021.3
20221208025614 51 317 0.0 0.0 0.00 0.08 0.08 53 1021.3
20221208025512 51 317 0.0 0.0 0.00 0.08 0.08 53 1021.2
20221208025406 51 317 0.0 0.0 0.00 0.08 0.08 53 1021.3
20221208025305 51 317 0.0 0.0 0.00 0.08 0.08 53 1021.2
20221208025155 51 317 0.0 2.0 0.00 0.08 0.08 53 1021.3
20221208025052 51 317 0.0 2.0 0.00 0.08 0.08 53 1021.3
20221208024945 51 317 0.0 2.0 0.00 0.08 0.08 53 1021.3
20221208024842 51 317 0.0 1.0 0.00 0.08 0.08 53 1021.3
20221208024733 51 317 0.0 0.0 0.00 0.08 0.08 53 1021.3
20221208024406 51 317 0.0 2.0 0.00 0.08 0.08 53 1021.3
20221208024301 51 317 0.0 2.0 0.00 0.08 0.08 53 1021.3
20221208024156 51 317 0.0 2.0 0.00 0.08 0.08 53 1021.3
20221208024051 51 317 0.0 2.0 0.00 0.08 0.08 54 1021.4
20221208023947 51 317 0.0 2.0 0.00 0.08 0.08 54 1021.4
20221208023844 51 317 0.0 2.0 0.00 0.08 0.08 54 1021.3
20221208023739 51 317 0.0 1.0 0.00 0.08 0.08 54 1021.3
20221208023416 51 317 0.0 0.0 0.00 0.08 0.08 54 1021.3
20221208023050 51 317 0.0 1.0 0.00 0.08 0.08 54 1021.3
20221208022948 51 317 0.0 1.0 0.00 0.08 0.08 54 1021.3
20221208022622 51 317 0.0 0.0 0.00 0.08 0.08 54 1021.4
20221208022515 51 317 0.0 2.0 0.00 0.08 0.08 54 1021.4
20221208022412 51 317 0.0 2.0 0.00 0.08 0.08 54 1021.5
20221208022305 51 261 0.0 2.0 0.00 0.08 0.08 53 1021.3
20221208022158 51 232 0.0 2.0 0.00 0.08 0.08 53 1021.4
20221208022056 51 232 0.0 2.0 0.00 0.08 0.08 53 1021.5
20221208021953 51 232 0.0 2.0 0.00 0.08 0.08 53 1021.5
20221208021849 51 232 0.0 2.0 0.00 0.08 0.08 53 1021.4
20221208021744 51 232 0.0 1.0 0.00 0.08 0.08 53 1021.3
20221208021421 51 232 0.0 0.0 0.00 0.08 0.08 54 1021.2
20221208021313 51 232 0.0 0.0 0.00 0.08 0.08 54 1021.2
20221208020947 51 232 0.0 0.0 0.00 0.08 0.08 54 1021.1
20221208020844 51 232 0.0 0.0 0.00 0.08 0.08 54 1021.1
20221208020739 51 232 0.0 0.0 0.00 0.08 0.08 54 1021.2
20221208020152 51 232 0.0 0.0 0.00 0.08 0.08 54 1021.2
20221208020047 51 232 0.0 0.0 0.00 0.08 0.08 54 1021.2
20221208015940 51 232 0.0 0.0 0.00 0.08 0.08 54 1021.2
20221208015836 51 232 0.0 0.0 0.00 0.08 0.08 54 1021.1
20221208015734 51 232 0.0 0.0 0.00 0.08 0.08 54 1021.1
20221208015409 51 232 0.0 0.0 0.00 0.08 0.08 54 1021.2
20221208015305 51 232 0.0 0.0 0.00 0.08 0.08 54 1021.1
20221208015156 51 232 0.0 0.0 0.00 0.08 0.08 54 1021.1
20221208014833 51 232 0.0 0.0 0.00 0.08 0.08 54 1021.0
20221208014725 51 232 0.0 0.0 0.00 0.08 0.08 54 1021.0
20221208014618 51 232 0.0 0.0 0.00 0.08 0.08 54 1021.0
20221208014513 51 232 0.0 0.0 0.00 0.08 0.08 54 1021.0
20221208014411 51 232 0.0 0.0 0.00 0.08 0.08 54 1021.0
20221208014304 51 232 0.0 0.0 0.00 0.08 0.08 54 1021.0
20221208014201 51 232 0.0 0.0 0.00 0.08 0.08 54 1021.1
20221208014058 51 232 0.0 0.0 0.00 0.08 0.08 54 1021.1
20221208013954 51 232 0.0 0.0 0.00 0.08 0.08 54 1021.0
20221208013851 51 232 0.0 0.0 0.00 0.08 0.08 54 1021.0
20221208013744 51 232 0.0 0.0 0.00 0.08 0.08 54 1020.9
20221208013638 51 232 0.0 0.0 0.00 0.08 0.08 54 1021.0
20221208013536 51 232 0.0 0.0 0.00 0.08 0.08 54 1021.0
20221208013433 51 232 0.0 0.0 0.00 0.08 0.08 54 1021.0
20221208013329 51 232 0.0 0.0 0.00 0.08 0.08 54 1021.0